Time,TemperatureF,DewpointF,PressureIn,WindDirection,WindDirectionDegrees,WindSpeedMPH,WindSpeedGustMPH,Humidity,HourlyPrecipIn,Conditions,Clouds,dailyrainin,SolarRadiationWatts/m^2,SoftwareType,DateUTC
2013-08-05 00:03:00,65.7,61.7,29.94,NE,46,0.0,4.0,87,0.00,,,0.00,0.0,meteohub,2013-08-05 05:03:00,
2013-08-05 00:08:00,65.7,61.7,29.94,NNW,340,0.0,4.0,87,0.00,,,0.00,0.0,meteohub,2013-08-05 05:08:00,
2013-08-05 00:13:00,65.7,61.7,29.94,West,281,3.0,4.0,87,0.00,,,0.00,0.0,meteohub,2013-08-05 05:13:00,
2013-08-05 00:18:00,65.7,62.1,29.94,NW,307,0.0,3.0,88,0.00,,,0.00,0.0,meteohub,2013-08-05 05:18:00,
2013-08-05 00:23:00,65.7,62.1,29.94,NNE,27,0.0,6.0,88,0.00,,,0.00,0.0,meteohub,2013-08-05 05:23:00,
2013-08-05 00:28:00,65.7,62.1,29.95,NW,307,0.0,6.0,88,0.00,,,0.00,0.0,meteohub,2013-08-05 05:28:00,
2013-08-05 00:33:00,65.5,62.2,29.94,North,0,0.0,6.0,89,0.00,,,0.00,0.0,meteohub,2013-08-05 05:33:00,
2013-08-05 00:38:00,65.3,62.2,29.94,North,0,0.0,2.0,90,0.00,,,0.00,0.0,meteohub,2013-08-05 05:38:00,
2013-08-05 00:43:00,65.1,62.1,29.96,North,0,2.0,3.0,90,0.00,,,0.00,0.0,meteohub,2013-08-05 05:43:00,
2013-08-05 00:48:00,65.1,62.1,29.96,NE,50,2.0,3.0,90,0.00,,,0.00,0.0,meteohub,2013-08-05 05:48:00,
2013-08-05 00:53:00,65.1,62.1,29.98,ENE,63,4.0,4.0,90,0.00,,,0.00,0.0,meteohub,2013-08-05 05:53:00,
2013-08-05 00:58:00,64.9,61.9,30.00,NNW,344,3.0,6.0,90,0.00,,,0.00,0.0,meteohub,2013-08-05 05:58:00,
2013-08-05 01:03:00,64.8,62.1,30.00,NE,46,3.0,6.0,91,0.01,,,0.01,0.0,meteohub,2013-08-05 06:03:00,
2013-08-05 01:08:00,64.4,62.1,29.98,NE,43,0.0,6.0,92,0.30,,,0.30,0.0,meteohub,2013-08-05 06:08:00,
2013-08-05 01:13:00,64.0,62.1,30.00,NNW,333,0.0,5.0,93,0.69,,,0.51,0.0,meteohub,2013-08-05 06:13:00,
2013-08-05 01:18:00,63.9,62.1,29.99,East,82,0.0,4.0,94,0.83,,,0.83,0.0,meteohub,2013-08-05 06:18:00,
2013-08-05 01:23:00,63.5,61.7,29.96,ESE,102,0.0,5.0,94,0.91,,,0.91,0.0,meteohub,2013-08-05 06:23:00,
2013-08-05 01:28:00,63.3,61.9,29.96,SSE,150,0.0,5.0,95,0.95,,,0.95,0.0,meteohub,2013-08-05 06:28:00,
2013-08-05 01:33:00,63.3,61.9,29.97,WNW,296,1.0,2.0,95,1.02,,,1.02,0.0,meteohub,2013-08-05 06:33:00,
2013-08-05 01:38:00,63.3,61.9,29.96,WNW,296,0.0,2.0,95,1.06,,,1.06,0.0,meteohub,2013-08-05 06:38:00,
2013-08-05 01:43:00,63.3,62.2,29.95,WNW,296,0.0,2.0,96,1.06,,,1.06,0.0,meteohub,2013-08-05 06:43:00,
2013-08-05 01:48:00,63.3,62.2,29.95,WNW,296,0.0,2.0,96,1.06,,,1.06,0.0,meteohub,2013-08-05 06:48:00,
2013-08-05 01:53:00,63.1,62.1,29.94,WNW,296,0.0,1.0,96,1.06,,,1.06,0.0,meteohub,2013-08-05 06:53:00,
2013-08-05 01:58:00,63.3,62.2,29.94,West,281,0.0,1.0,96,1.06,,,1.06,0.0,meteohub,2013-08-05 06:58:00,
2013-08-05 02:03:00,63.3,62.2,29.94,WNW,282,0.0,2.0,96,1.02,,,1.06,0.0,meteohub,2013-08-05 07:03:00,
2013-08-05 02:09:00,63.1,62.1,29.93,NNW,333,0.0,2.0,96,0.67,,,1.06,0.0,meteohub,2013-08-05 07:09:00,
2013-08-05 02:14:00,63.3,62.4,29.93,NNW,333,0.0,2.0,97,0.35,,,1.06,0.0,meteohub,2013-08-05 07:14:00,
2013-08-05 02:19:00,63.1,62.2,29.93,NNW,332,0.0,2.0,97,0.19,,,1.06,0.0,meteohub,2013-08-05 07:19:00,
2013-08-05 02:24:00,63.1,62.2,29.93,NNW,330,0.0,2.0,97,0.14,,,1.06,0.0,meteohub,2013-08-05 07:24:00,
2013-08-05 02:29:00,63.1,62.2,29.92,WNW,290,0.0,1.0,97,0.12,,,1.10,0.0,meteohub,2013-08-05 07:29:00,
2013-08-05 02:34:00,63.1,62.2,29.92,WNW,291,0.0,2.0,97,0.06,,,1.11,0.0,meteohub,2013-08-05 07:34:00,
2013-08-05 02:39:00,63.3,62.4,29.92,WNW,291,0.0,2.0,97,0.08,,,1.14,0.0,meteohub,2013-08-05 07:39:00,
2013-08-05 02:44:00,63.3,62.4,29.91,WNW,289,0.0,2.0,97,0.08,,,1.14,0.0,meteohub,2013-08-05 07:44:00,
2013-08-05 02:49:00,63.3,62.4,29.91,WNW,294,0.0,1.0,97,0.08,,,1.14,0.0,meteohub,2013-08-05 07:49:00,
2013-08-05 02:53:00,63.3,62.4,29.91,WNW,290,0.0,4.0,97,0.08,,,1.14,0.0,meteohub,2013-08-05 07:53:00,
2013-08-05 02:59:00,63.3,62.4,29.91,WNW,291,0.0,4.0,97,0.08,,,1.14,0.0,meteohub,2013-08-05 07:59:00,
2013-08-05 03:04:00,63.3,62.4,29.91,NNW,337,0.0,4.0,97,0.08,,,1.14,0.0,meteohub,2013-08-05 08:04:00,
2013-08-05 03:09:00,63.3,62.4,29.90,North,0,0.0,2.0,97,0.08,,,1.14,0.0,meteohub,2013-08-05 08:09:00,
2013-08-05 03:13:00,63.3,62.4,29.90,West,269,1.0,2.0,97,0.08,,,1.14,0.0,meteohub,2013-08-05 08:13:00,
2013-08-05 03:19:00,63.3,62.4,29.90,West,274,1.0,3.0,97,0.08,,,1.14,0.0,meteohub,2013-08-05 08:19:00,
2013-08-05 03:24:00,63.3,62.4,29.90,NW,308,0.0,3.0,97,0.07,,,1.14,0.0,meteohub,2013-08-05 08:24:00,
2013-08-05 03:28:00,63.5,62.6,29.90,West,276,4.0,4.0,97,0.04,,,1.14,0.0,meteohub,2013-08-05 08:28:00,
2013-08-05 03:34:00,63.5,62.6,29.90,West,275,0.0,4.0,97,0.02,,,1.14,0.0,meteohub,2013-08-05 08:34:00,
2013-08-05 03:39:00,63.5,62.6,29.90,WNW,297,0.0,7.0,97,0.00,,,1.14,0.0,meteohub,2013-08-05 08:39:00,
2013-08-05 03:44:00,63.5,62.6,29.90,WNW,296,0.0,7.0,97,0.00,,,1.14,0.0,meteohub,2013-08-05 08:44:00,
2013-08-05 03:49:00,63.7,62.8,29.89,NW,316,0.0,2.0,97,0.00,,,1.14,0.0,meteohub,2013-08-05 08:49:00,
2013-08-05 03:54:00,63.7,62.8,29.89,NE,52,0.0,3.0,97,0.00,,,1.14,0.0,meteohub,2013-08-05 08:54:00,
2013-08-05 03:59:00,63.7,62.8,29.89,WNW,286,0.0,3.0,97,0.00,,,1.14,0.0,meteohub,2013-08-05 08:59:00,
2013-08-05 04:04:00,63.7,62.8,29.90,NE,38,0.0,3.0,97,0.00,,,1.14,0.0,meteohub,2013-08-05 09:04:00,
2013-08-05 04:09:00,63.9,63.0,29.90,NE,37,0.0,3.0,97,0.00,,,1.14,0.0,meteohub,2013-08-05 09:09:00,
2013-08-05 04:14:00,63.9,63.0,29.90,NE,37,0.0,3.0,97,0.00,,,1.14,0.0,meteohub,2013-08-05 09:14:00,
2013-08-05 04:20:00,63.7,62.8,29.90,NE,37,0.0,3.0,97,0.00,,,1.14,0.0,meteohub,2013-08-05 09:20:00,
2013-08-05 04:25:00,63.7,62.8,29.90,NE,37,0.0,0.0,97,0.00,,,1.14,0.0,meteohub,2013-08-05 09:25:00,
2013-08-05 04:30:00,63.9,63.0,29.90,NE,37,0.0,0.0,97,0.00,,,1.14,0.0,meteohub,2013-08-05 09:30:00,
2013-08-05 04:35:00,63.9,63.0,29.89,NE,37,0.0,1.0,97,0.00,,,1.14,0.0,meteohub,2013-08-05 09:35:00,
2013-08-05 04:40:00,63.9,63.0,29.89,NW,308,0.0,3.0,97,0.00,,,1.14,0.0,meteohub,2013-08-05 09:40:00,
2013-08-05 04:45:00,63.9,63.0,29.89,WSW,242,0.0,3.0,97,0.00,,,1.14,0.0,meteohub,2013-08-05 09:45:00,
2013-08-05 04:51:00,63.9,63.0,29.89,WSW,242,0.0,3.0,97,0.00,,,1.14,0.0,meteohub,2013-08-05 09:51:00,
2013-08-05 04:57:00,63.9,63.0,29.88,WNW,292,0.0,2.0,97,0.00,,,1.14,0.0,meteohub,2013-08-05 09:57:00,
2013-08-05 05:02:00,63.9,63.0,29.89,WNW,292,0.0,2.0,97,0.00,,,1.14,0.0,meteohub,2013-08-05 10:02:00,
2013-08-05 05:07:00,63.9,63.0,29.89,West,264,0.0,2.0,97,0.00,,,1.14,0.0,meteohub,2013-08-05 10:07:00,
2013-08-05 05:11:00,63.7,62.8,29.89,North,5,0.0,2.0,97,0.00,,,1.14,0.0,meteohub,2013-08-05 10:11:00,
2013-08-05 05:17:00,63.7,62.8,29.89,North,5,0.0,2.0,97,0.00,,,1.14,0.0,meteohub,2013-08-05 10:17:00,
2013-08-05 05:22:00,63.9,63.0,29.89,North,9,0.0,2.0,97,0.00,,,1.14,0.0,meteohub,2013-08-05 10:22:00,
2013-08-05 05:27:00,63.7,62.8,29.89,North,0,0.0,2.0,97,0.00,,,1.14,0.0,meteohub,2013-08-05 10:27:00,
2013-08-05 05:32:00,63.7,62.8,29.89,North,0,0.0,2.0,97,0.00,,,1.14,0.0,meteohub,2013-08-05 10:32:00,
2013-08-05 05:37:00,63.7,62.8,29.89,WNW,300,0.0,2.0,97,0.00,,,1.14,0.0,meteohub,2013-08-05 10:37:00,
2013-08-05 05:42:00,63.9,63.0,29.89,WNW,300,0.0,2.0,97,0.00,,,1.14,0.0,meteohub,2013-08-05 10:42:00,
2013-08-05 05:47:00,63.9,63.0,29.89,WNW,300,0.0,2.0,97,0.00,,,1.14,0.0,meteohub,2013-08-05 10:47:00,
2013-08-05 05:52:00,63.7,62.8,29.89,WNW,300,0.0,2.0,97,0.00,,,1.14,0.0,meteohub,2013-08-05 10:52:00,
2013-08-05 05:57:00,63.7,62.8,29.89,WNW,300,0.0,0.0,97,0.00,,,1.14,0.0,meteohub,2013-08-05 10:57:00,
2013-08-05 06:02:00,63.7,63.1,29.89,WNW,300,0.0,0.0,98,0.00,,,1.14,0.0,meteohub,2013-08-05 11:02:00,
2013-08-05 06:08:00,63.7,63.1,29.88,WNW,300,0.0,0.0,98,0.00,,,1.14,0.0,meteohub,2013-08-05 11:08:00,
2013-08-05 06:12:00,63.7,63.1,29.88,WNW,300,0.0,0.0,98,0.00,,,1.14,0.0,meteohub,2013-08-05 11:12:00,
2013-08-05 06:17:00,63.7,63.1,29.88,WNW,300,0.0,0.0,98,0.00,,,1.14,0.0,meteohub,2013-08-05 11:17:00,
2013-08-05 06:23:00,63.7,63.1,29.88,WNW,300,0.0,0.0,98,0.00,,,1.14,0.0,meteohub,2013-08-05 11:23:00,
2013-08-05 06:28:00,63.7,63.1,29.88,WNW,300,0.0,1.0,98,0.00,,,1.14,5.0,meteohub,2013-08-05 11:28:00,
2013-08-05 06:33:00,63.7,63.1,29.88,WNW,300,0.0,1.0,98,0.00,,,1.14,5.0,meteohub,2013-08-05 11:33:00,
2013-08-05 06:38:00,63.7,63.1,29.89,WNW,300,0.0,1.0,98,0.00,,,1.14,11.0,meteohub,2013-08-05 11:38:00,
2013-08-05 06:43:00,63.7,63.1,29.89,WNW,300,0.0,0.0,98,0.00,,,1.14,14.0,meteohub,2013-08-05 11:43:00,
2013-08-05 06:48:00,63.7,63.1,29.88,WNW,300,0.0,0.0,98,0.00,,,1.14,23.0,meteohub,2013-08-05 11:48:00,
2013-08-05 06:53:00,63.9,63.3,29.88,WNW,300,0.0,0.0,98,0.00,,,1.14,19.0,meteohub,2013-08-05 11:53:00,
2013-08-05 07:00:00,63.9,63.3,29.88,WNW,300,0.0,1.0,98,0.00,,,1.14,28.0,meteohub,2013-08-05 12:00:00,
2013-08-05 07:05:00,63.9,63.3,29.87,NNE,17,0.0,2.0,98,0.00,,,1.14,56.0,meteohub,2013-08-05 12:05:00,
2013-08-05 07:10:00,63.9,63.3,29.88,NNE,17,0.0,2.0,98,0.00,,,1.14,46.0,meteohub,2013-08-05 12:10:00,
2013-08-05 07:15:00,63.9,63.3,29.88,NNE,17,0.0,2.0,98,0.00,,,1.14,40.0,meteohub,2013-08-05 12:15:00,
2013-08-05 07:20:00,64.0,63.5,29.87,NNE,17,0.0,1.0,98,0.00,,,1.14,63.0,meteohub,2013-08-05 12:20:00,
2013-08-05 07:25:00,64.0,63.5,29.88,NNE,17,0.0,1.0,98,0.00,,,1.14,46.0,meteohub,2013-08-05 12:25:00,
2013-08-05 07:31:00,64.0,63.5,29.87,NNE,17,0.0,0.0,98,0.00,,,1.14,79.0,meteohub,2013-08-05 12:31:00,
2013-08-05 07:36:00,64.0,63.5,29.87,West,271,0.0,0.0,98,0.00,,,1.14,98.0,meteohub,2013-08-05 12:36:00,
2013-08-05 07:41:00,64.2,63.7,29.88,West,271,0.0,2.0,98,0.00,,,1.14,114.0,meteohub,2013-08-05 12:41:00,
2013-08-05 07:47:00,64.6,64.0,29.88,West,271,0.0,2.0,98,0.00,,,1.14,79.0,meteohub,2013-08-05 12:47:00,
2013-08-05 07:52:00,64.4,63.9,29.88,West,271,0.0,1.0,98,0.00,,,1.14,62.0,meteohub,2013-08-05 12:52:00,
2013-08-05 07:57:00,64.2,63.7,29.88,West,271,0.0,1.0,98,0.00,,,1.14,79.0,meteohub,2013-08-05 12:57:00,
2013-08-05 08:02:00,64.2,63.7,29.88,WNW,284,0.0,2.0,98,0.00,,,1.14,130.0,meteohub,2013-08-05 13:02:00,
2013-08-05 08:07:00,64.6,64.0,29.88,WNW,284,0.0,2.0,98,0.00,,,1.14,77.0,meteohub,2013-08-05 13:07:00,
2013-08-05 08:11:00,64.6,64.0,29.88,WNW,284,0.0,1.0,98,0.00,,,1.14,77.0,meteohub,2013-08-05 13:11:00,
2013-08-05 08:17:00,64.8,64.2,29.89,WNW,284,0.0,1.0,98,0.00,,,1.14,60.0,meteohub,2013-08-05 13:17:00,
2013-08-05 08:22:00,64.8,64.2,29.88,WNW,284,0.0,0.0,98,0.00,,,1.14,70.0,meteohub,2013-08-05 13:22:00,
2013-08-05 08:27:00,64.8,64.2,29.88,WNW,284,0.0,1.0,98,0.00,,,1.14,100.0,meteohub,2013-08-05 13:27:00,
2013-08-05 08:32:00,64.6,63.7,29.89,WSW,254,0.0,1.0,97,0.00,,,1.14,95.0,meteohub,2013-08-05 13:32:00,
2013-08-05 08:37:00,64.9,64.4,29.89,WSW,254,0.0,1.0,98,0.00,,,1.14,139.0,meteohub,2013-08-05 13:37:00,
2013-08-05 08:42:00,64.9,64.4,29.88,WSW,254,0.0,1.0,98,0.00,,,1.14,121.0,meteohub,2013-08-05 13:42:00,
2013-08-05 08:47:00,64.9,64.4,29.88,WSW,254,0.0,1.0,98,0.00,,,1.14,137.0,meteohub,2013-08-05 13:47:00,
2013-08-05 08:52:00,65.3,64.8,29.88,WSW,254,0.0,0.0,98,0.00,,,1.14,149.0,meteohub,2013-08-05 13:52:00,
2013-08-05 08:57:00,65.1,64.6,29.88,WSW,254,0.0,0.0,98,0.00,,,1.14,141.0,meteohub,2013-08-05 13:57:00,
2013-08-05 09:02:00,65.5,64.9,29.88,WSW,254,0.0,0.0,98,0.00,,,1.14,162.0,meteohub,2013-08-05 14:02:00,
2013-08-05 09:07:00,65.7,65.1,29.88,WSW,254,0.0,0.0,98,0.00,,,1.14,171.0,meteohub,2013-08-05 14:07:00,
2013-08-05 09:12:00,65.8,65.3,29.88,WSW,254,0.0,0.0,98,0.00,,,1.14,176.0,meteohub,2013-08-05 14:12:00,
2013-08-05 09:18:00,66.0,65.5,29.87,WSW,254,0.0,0.0,98,0.00,,,1.14,181.0,meteohub,2013-08-05 14:18:00,
2013-08-05 09:22:00,66.0,65.1,29.87,WSW,254,0.0,1.0,97,0.00,,,1.14,251.0,meteohub,2013-08-05 14:22:00,
2013-08-05 09:28:00,66.2,65.3,29.87,WSW,254,0.0,1.0,97,0.00,,,1.14,237.0,meteohub,2013-08-05 14:28:00,
2013-08-05 09:33:00,66.6,65.7,29.87,WSW,254,0.0,1.0,97,0.00,,,1.14,339.0,meteohub,2013-08-05 14:33:00,
2013-08-05 09:38:00,67.3,66.4,29.86,WSW,254,0.0,1.0,97,0.00,,,1.14,258.0,meteohub,2013-08-05 14:38:00,
2013-08-05 09:44:00,67.1,65.7,29.86,WSW,254,0.0,1.0,95,0.00,,,1.14,244.0,meteohub,2013-08-05 14:44:00,
2013-08-05 09:49:00,67.6,66.2,29.86,WSW,255,0.0,1.0,95,0.00,,,1.14,471.0,meteohub,2013-08-05 14:49:00,
2013-08-05 09:54:00,67.5,66.2,29.86,WSW,255,0.0,1.0,96,0.00,,,1.14,257.0,meteohub,2013-08-05 14:54:00,
2013-08-05 09:59:00,67.8,66.0,29.86,WSW,255,0.0,0.0,94,0.00,,,1.14,207.0,meteohub,2013-08-05 14:59:00,
2013-08-05 10:04:00,67.6,66.2,29.86,SSW,206,0.0,0.0,95,0.00,,,1.14,183.0,meteohub,2013-08-05 15:04:00,
2013-08-05 10:09:00,67.5,66.2,29.86,SSW,206,0.0,0.0,96,0.00,,,1.14,179.0,meteohub,2013-08-05 15:09:00,
2013-08-05 10:14:00,67.6,66.4,29.86,SSW,206,0.0,0.0,96,0.00,,,1.14,552.0,meteohub,2013-08-05 15:14:00,
2013-08-05 10:19:00,68.2,66.9,29.86,SSW,206,0.0,0.0,96,0.00,,,1.14,178.0,meteohub,2013-08-05 15:19:00,
2013-08-05 10:24:00,68.0,66.7,29.86,SSW,206,0.0,0.0,96,0.00,,,1.14,221.0,meteohub,2013-08-05 15:24:00,
2013-08-05 10:29:00,68.4,67.5,29.86,SSW,206,0.0,1.0,97,0.00,,,1.14,506.0,meteohub,2013-08-05 15:29:00,
2013-08-05 10:35:00,68.5,67.1,29.86,SW,232,0.0,1.0,95,0.00,,,1.14,510.0,meteohub,2013-08-05 15:35:00,
2013-08-05 10:40:00,69.3,67.8,29.86,SW,232,0.0,1.0,95,0.00,,,1.14,533.0,meteohub,2013-08-05 15:40:00,
2013-08-05 10:45:00,70.2,68.7,29.86,SW,232,0.0,1.0,95,0.00,,,1.14,772.0,meteohub,2013-08-05 15:45:00,
2013-08-05 10:50:00,70.3,68.5,29.85,SW,232,0.0,1.0,94,0.00,,,1.14,169.0,meteohub,2013-08-05 15:50:00,
2013-08-05 10:55:00,70.3,68.9,29.85,SW,227,0.0,1.0,95,0.00,,,1.14,758.0,meteohub,2013-08-05 15:55:00,
2013-08-05 11:00:00,70.2,68.0,29.86,SW,234,0.0,1.0,93,0.00,,,1.14,780.0,meteohub,2013-08-05 16:00:00,
2013-08-05 11:05:00,70.5,68.4,29.85,SW,231,0.0,2.0,93,0.00,,,1.14,773.0,meteohub,2013-08-05 16:05:00,
2013-08-05 11:12:00,71.4,67.6,29.85,SW,233,0.0,2.0,88,0.00,,,1.14,188.0,meteohub,2013-08-05 16:12:00,
2013-08-05 11:17:00,71.6,69.1,29.85,SW,233,0.0,2.0,92,0.00,,,1.14,759.0,meteohub,2013-08-05 16:17:00,
2013-08-05 11:22:00,72.7,67.6,29.84,NE,41,0.0,2.0,84,0.00,,,1.14,831.0,meteohub,2013-08-05 16:22:00,
2013-08-05 11:27:00,72.7,68.5,29.84,NW,317,1.0,4.0,87,0.00,,,1.14,269.0,meteohub,2013-08-05 16:27:00,
2013-08-05 11:32:00,73.0,69.6,29.84,SE,134,0.0,4.0,89,0.00,,,1.14,870.0,meteohub,2013-08-05 16:32:00,
2013-08-05 11:38:00,73.2,69.4,29.85,SE,137,0.0,4.0,88,0.00,,,1.14,482.0,meteohub,2013-08-05 16:38:00,
2013-08-05 11:43:00,72.7,69.3,29.85,SE,136,0.0,2.0,89,0.00,,,1.14,271.0,meteohub,2013-08-05 16:43:00,
2013-08-05 11:48:00,72.7,67.6,29.85,SW,217,0.0,2.0,84,0.00,,,1.14,285.0,meteohub,2013-08-05 16:48:00,
2013-08-05 11:53:00,72.5,68.0,29.85,SW,233,1.0,2.0,86,0.00,,,1.14,854.0,meteohub,2013-08-05 16:53:00,
2013-08-05 11:58:00,73.2,68.7,29.85,NNW,340,1.0,2.0,86,0.00,,,1.14,257.0,meteohub,2013-08-05 16:58:00,
2013-08-05 12:04:00,73.6,70.5,29.85,NNW,345,0.0,2.0,90,0.00,,,1.14,944.0,meteohub,2013-08-05 17:04:00,
2013-08-05 12:09:00,74.7,68.0,29.85,WNW,294,0.0,2.0,80,0.00,,,1.14,905.0,meteohub,2013-08-05 17:09:00,
2013-08-05 12:15:00,74.7,68.4,29.85,NNW,333,1.0,2.0,81,0.00,,,1.14,272.0,meteohub,2013-08-05 17:15:00,
2013-08-05 12:19:00,74.1,68.5,29.85,NNW,333,0.0,5.0,83,0.00,,,1.14,308.0,meteohub,2013-08-05 17:19:00,
2013-08-05 12:25:00,73.4,68.0,29.84,NNW,329,0.0,5.0,83,0.00,,,1.14,255.0,meteohub,2013-08-05 17:25:00,
2013-08-05 12:29:00,74.5,68.2,29.85,NNW,329,0.0,2.0,81,0.00,,,1.14,969.0,meteohub,2013-08-05 17:29:00,
2013-08-05 12:35:00,75.7,69.1,29.85,NNW,331,0.0,3.0,80,0.00,,,1.14,1035.0,meteohub,2013-08-05 17:35:00,
2013-08-05 12:40:00,76.5,71.2,29.85,NNE,12,0.0,3.0,84,0.00,,,1.14,1035.0,meteohub,2013-08-05 17:40:00,
2013-08-05 12:45:00,75.4,68.7,29.85,NNE,12,0.0,4.0,80,0.00,,,1.14,199.0,meteohub,2013-08-05 17:45:00,
2013-08-05 12:50:00,74.7,69.4,29.85,North,9,0.0,4.0,84,0.00,,,1.14,1027.0,meteohub,2013-08-05 17:50:00,
2013-08-05 12:55:00,75.9,69.3,29.85,North,5,0.0,2.0,80,0.00,,,1.14,297.0,meteohub,2013-08-05 17:55:00,
2013-08-05 13:00:00,74.8,68.2,29.85,North,5,1.0,2.0,80,0.00,,,1.14,248.0,meteohub,2013-08-05 18:00:00,
2013-08-05 13:05:00,74.7,69.1,29.85,West,267,0.0,3.0,83,0.00,,,1.14,747.0,meteohub,2013-08-05 18:05:00,
2013-08-05 13:10:00,75.7,69.1,29.85,NE,34,0.0,3.0,80,0.00,,,1.14,1009.0,meteohub,2013-08-05 18:10:00,
2013-08-05 13:16:00,75.2,69.6,29.85,NW,322,0.0,3.0,83,0.00,,,1.14,939.0,meteohub,2013-08-05 18:16:00,
2013-08-05 13:21:00,76.6,70.3,29.85,North,355,0.0,3.0,81,0.00,,,1.14,1016.0,meteohub,2013-08-05 18:21:00,
2013-08-05 13:26:00,76.8,69.4,29.85,NNW,344,0.0,3.0,78,0.00,,,1.14,1013.0,meteohub,2013-08-05 18:26:00,
2013-08-05 13:32:00,77.0,69.3,29.85,NNW,337,1.0,4.0,77,0.00,,,1.14,905.0,meteohub,2013-08-05 18:32:00,
2013-08-05 13:37:00,76.8,70.2,29.85,NW,304,0.0,5.0,80,0.00,,,1.14,944.0,meteohub,2013-08-05 18:37:00,
2013-08-05 13:42:00,76.5,68.4,29.85,WSW,253,2.0,5.0,76,0.00,,,1.14,972.0,meteohub,2013-08-05 18:42:00,
2013-08-05 13:47:00,74.7,67.3,29.85,WSW,257,0.0,5.0,78,0.00,,,1.14,211.0,meteohub,2013-08-05 18:47:00,
2013-08-05 13:52:00,75.7,68.0,29.85,NW,309,1.0,5.0,77,0.00,,,1.14,248.0,meteohub,2013-08-05 18:52:00,
2013-08-05 13:57:00,77.2,70.5,29.85,West,261,0.0,5.0,80,0.00,,,1.14,875.0,meteohub,2013-08-05 18:57:00,
2013-08-05 14:02:00,76.6,68.9,29.85,West,261,2.0,5.0,77,0.00,,,1.14,863.0,meteohub,2013-08-05 19:02:00,
2013-08-05 14:07:00,76.3,67.8,29.84,West,266,1.0,4.0,75,0.00,,,1.14,853.0,meteohub,2013-08-05 19:07:00,
2013-08-05 14:13:00,77.2,69.1,29.84,West,268,0.0,4.0,76,0.00,,,1.14,847.0,meteohub,2013-08-05 19:13:00,
2013-08-05 14:18:00,77.2,70.5,29.84,West,267,0.0,3.0,80,0.00,,,1.14,851.0,meteohub,2013-08-05 19:18:00,
2013-08-05 14:23:00,76.3,69.3,29.84,West,267,0.0,3.0,79,0.00,,,1.14,870.0,meteohub,2013-08-05 19:23:00,
2013-08-05 14:28:00,75.9,68.5,29.84,NW,326,0.0,3.0,78,0.00,,,1.14,279.0,meteohub,2013-08-05 19:28:00,
2013-08-05 14:33:00,75.9,67.1,29.84,West,264,1.0,4.0,74,0.00,,,1.14,171.0,meteohub,2013-08-05 19:33:00,
2013-08-05 14:38:00,74.7,67.6,29.84,West,264,0.0,4.0,79,0.00,,,1.14,179.0,meteohub,2013-08-05 19:38:00,
2013-08-05 14:43:00,75.7,69.1,29.84,West,264,0.0,4.0,80,0.00,,,1.14,921.0,meteohub,2013-08-05 19:43:00,
2013-08-05 14:48:00,75.9,70.7,29.84,West,264,1.0,2.0,84,0.00,,,1.14,223.0,meteohub,2013-08-05 19:48:00,
2013-08-05 14:54:00,75.7,67.3,29.84,West,274,1.0,2.0,75,0.00,,,1.14,250.0,meteohub,2013-08-05 19:54:00,
2013-08-05 14:59:00,76.1,69.4,29.84,West,274,0.0,2.0,80,0.00,,,1.14,325.0,meteohub,2013-08-05 19:59:00,
2013-08-05 15:05:00,76.6,68.5,29.84,North,5,1.0,2.0,76,0.00,,,1.14,97.0,meteohub,2013-08-05 20:05:00,
2013-08-05 15:12:00,74.8,68.9,29.84,North,5,1.0,6.0,82,0.00,,,1.14,163.0,meteohub,2013-08-05 20:12:00,
2013-08-05 15:17:00,76.3,71.1,29.84,North,5,1.0,6.0,84,0.00,,,1.14,796.0,meteohub,2013-08-05 20:17:00,
2013-08-05 15:22:00,77.2,70.2,29.84,WSW,257,1.0,4.0,79,0.00,,,1.14,782.0,meteohub,2013-08-05 20:22:00,
2013-08-05 15:27:00,77.4,68.4,29.83,West,273,1.0,4.0,74,0.00,,,1.14,763.0,meteohub,2013-08-05 20:27:00,
2013-08-05 15:32:00,77.5,68.5,29.83,West,263,3.0,4.0,74,0.00,,,1.14,775.0,meteohub,2013-08-05 20:32:00,
2013-08-05 15:37:00,77.9,67.8,29.83,WSW,244,3.0,4.0,71,0.00,,,1.14,766.0,meteohub,2013-08-05 20:37:00,
2013-08-05 15:42:00,77.7,68.4,29.83,West,262,2.0,4.0,73,0.00,,,1.14,763.0,meteohub,2013-08-05 20:42:00,
2013-08-05 15:47:00,77.9,68.5,29.83,NNW,335,1.0,5.0,73,0.00,,,1.14,679.0,meteohub,2013-08-05 20:47:00,
2013-08-05 15:52:00,78.1,68.4,29.83,West,273,1.0,5.0,72,0.00,,,1.14,278.0,meteohub,2013-08-05 20:52:00,
2013-08-05 15:58:00,77.5,66.6,29.83,WSW,250,2.0,5.0,69,0.00,,,1.14,360.0,meteohub,2013-08-05 20:58:00,
2013-08-05 16:03:00,76.8,67.1,29.83,WSW,257,1.0,5.0,72,0.00,,,1.14,218.0,meteohub,2013-08-05 21:03:00,
2013-08-05 16:08:00,76.8,67.1,29.83,WSW,250,4.0,5.0,72,0.00,,,1.14,288.0,meteohub,2013-08-05 21:08:00,
2013-08-05 16:13:00,77.2,67.8,29.83,West,261,2.0,5.0,73,0.00,,,1.14,450.0,meteohub,2013-08-05 21:13:00,
2013-08-05 16:18:00,77.2,66.6,29.83,West,273,1.0,5.0,70,0.00,,,1.14,369.0,meteohub,2013-08-05 21:18:00,
2013-08-05 16:23:00,77.2,64.9,29.83,North,355,0.0,5.0,66,0.00,,,1.14,675.0,meteohub,2013-08-05 21:23:00,
2013-08-05 16:28:00,77.4,65.5,29.83,WSW,252,2.0,5.0,67,0.00,,,1.14,385.0,meteohub,2013-08-05 21:28:00,
2013-08-05 16:33:00,77.2,66.6,29.83,North,0,0.0,6.0,70,0.00,,,1.14,534.0,meteohub,2013-08-05 21:33:00,
2013-08-05 16:39:00,77.5,67.5,29.83,WSW,258,2.0,6.0,71,0.00,,,1.14,654.0,meteohub,2013-08-05 21:39:00,
2013-08-05 16:44:00,76.8,67.1,29.83,West,271,2.0,6.0,72,0.00,,,1.14,619.0,meteohub,2013-08-05 21:44:00,
2013-08-05 16:49:00,76.5,65.5,29.82,WSW,242,3.0,5.0,69,0.00,,,1.14,561.0,meteohub,2013-08-05 21:49:00,
2013-08-05 16:54:00,76.6,66.2,29.83,WNW,286,1.0,5.0,70,0.00,,,1.14,374.0,meteohub,2013-08-05 21:54:00,
2013-08-05 17:00:00,76.6,68.2,29.82,North,355,0.0,5.0,75,0.00,,,1.14,146.0,meteohub,2013-08-05 22:00:00,
2013-08-05 17:05:00,76.6,66.2,29.82,West,280,1.0,6.0,70,0.00,,,1.14,206.0,meteohub,2013-08-05 22:05:00,
2013-08-05 17:10:00,76.6,66.9,29.82,NNW,336,5.0,6.0,72,0.00,,,1.14,121.0,meteohub,2013-08-05 22:10:00,
2013-08-05 17:16:00,76.6,66.9,29.83,West,279,1.0,7.0,72,0.00,,,1.14,176.0,meteohub,2013-08-05 22:16:00,
2013-08-05 17:22:00,76.5,68.4,29.83,NNW,348,2.0,7.0,76,0.00,,,1.14,114.0,meteohub,2013-08-05 22:22:00,
2013-08-05 17:27:00,75.9,67.1,29.83,NNE,30,0.0,7.0,74,0.00,,,1.14,76.0,meteohub,2013-08-05 22:27:00,
2013-08-05 17:32:00,75.9,67.8,29.83,WSW,242,1.0,7.0,76,0.00,,,1.14,67.0,meteohub,2013-08-05 22:32:00,
2013-08-05 17:37:00,75.7,67.6,29.83,North,5,5.0,7.0,76,0.00,,,1.14,74.0,meteohub,2013-08-05 22:37:00,
2013-08-05 17:42:00,75.4,66.9,29.83,WNW,295,0.0,5.0,75,0.00,,,1.14,104.0,meteohub,2013-08-05 22:42:00,
2013-08-05 17:47:00,75.2,67.1,29.83,ESE,116,2.0,5.0,76,0.00,,,1.14,114.0,meteohub,2013-08-05 22:47:00,
2013-08-05 17:52:00,75.2,67.5,29.83,North,355,0.0,7.0,77,0.00,,,1.14,111.0,meteohub,2013-08-05 22:52:00,
2013-08-05 17:58:00,75.2,67.1,29.83,WNW,283,1.0,7.0,76,0.00,,,1.14,116.0,meteohub,2013-08-05 22:58:00,
2013-08-05 18:03:00,74.8,66.4,29.83,NW,319,0.0,5.0,75,0.00,,,1.14,76.0,meteohub,2013-08-05 23:03:00,
2013-08-05 18:08:00,74.7,66.6,29.83,West,267,2.0,5.0,76,0.00,,,1.14,84.0,meteohub,2013-08-05 23:08:00,
2013-08-05 18:13:00,74.7,66.9,29.83,West,265,2.0,5.0,77,0.00,,,1.14,93.0,meteohub,2013-08-05 23:13:00,
2013-08-05 18:18:00,74.8,67.1,29.82,North,0,2.0,5.0,77,0.00,,,1.14,84.0,meteohub,2013-08-05 23:18:00,
2013-08-05 18:23:00,74.8,66.7,29.82,North,11,1.0,6.0,76,0.00,,,1.14,44.0,meteohub,2013-08-05 23:23:00,
2013-08-05 18:28:00,74.7,66.2,29.82,NNE,33,0.0,6.0,75,0.00,,,1.14,49.0,meteohub,2013-08-05 23:28:00,
2013-08-05 18:33:00,74.5,65.7,29.82,North,5,4.0,6.0,74,0.00,,,1.14,123.0,meteohub,2013-08-05 23:33:00,
2013-08-05 18:38:00,74.5,66.4,29.82,NE,44,0.0,6.0,76,0.00,,,1.14,120.0,meteohub,2013-08-05 23:38:00,
2013-08-05 18:43:00,74.1,64.0,29.82,WNW,294,2.0,5.0,71,0.00,,,1.14,292.0,meteohub,2013-08-05 23:43:00,
2013-08-05 18:48:00,73.9,63.9,29.82,NNW,345,2.0,6.0,71,0.00,,,1.14,132.0,meteohub,2013-08-05 23:48:00,
2013-08-05 18:53:00,73.8,64.2,29.82,North,355,0.0,6.0,72,0.00,,,1.14,72.0,meteohub,2013-08-05 23:53:00,
2013-08-05 18:58:00,73.6,64.4,29.81,WNW,303,1.0,6.0,73,0.00,,,1.14,47.0,meteohub,2013-08-05 23:58:00,
2013-08-05 19:03:00,73.6,64.4,29.81,NE,45,1.0,5.0,73,0.00,,,1.14,62.0,meteohub,2013-08-06 00:03:00,
2013-08-05 19:09:00,73.6,64.4,29.81,North,0,1.0,4.0,73,0.00,,,1.14,33.0,meteohub,2013-08-06 00:09:00,
2013-08-05 19:15:00,73.2,64.0,29.81,NNE,13,0.0,3.0,73,0.00,,,1.14,32.0,meteohub,2013-08-06 00:15:00,
2013-08-05 19:20:00,73.2,64.0,29.81,NNE,15,0.0,3.0,73,0.00,,,1.14,30.0,meteohub,2013-08-06 00:20:00,
2013-08-05 19:25:00,73.0,64.2,29.81,ENE,65,0.0,4.0,74,0.00,,,1.14,33.0,meteohub,2013-08-06 00:25:00,
2013-08-05 19:30:00,72.9,63.7,29.81,North,11,0.0,4.0,73,0.00,,,1.14,35.0,meteohub,2013-08-06 00:30:00,
2013-08-05 19:35:00,72.7,63.9,29.81,North,5,1.0,4.0,74,0.00,,,1.14,26.0,meteohub,2013-08-06 00:35:00,
2013-08-05 19:40:00,72.3,63.9,29.81,North,5,0.0,3.0,75,0.00,,,1.14,26.0,meteohub,2013-08-06 00:40:00,
2013-08-05 19:45:00,72.1,64.2,29.81,North,5,0.0,2.0,76,0.00,,,1.14,23.0,meteohub,2013-08-06 00:45:00,
2013-08-05 19:50:00,72.0,64.0,29.81,North,5,0.0,1.0,76,0.00,,,1.14,21.0,meteohub,2013-08-06 00:50:00,
2013-08-05 19:55:00,71.4,64.6,29.81,North,5,0.0,1.0,79,0.00,,,1.14,21.0,meteohub,2013-08-06 00:55:00,
2013-08-05 20:00:00,71.2,64.4,29.80,North,5,0.0,1.0,79,0.00,,,1.14,19.0,meteohub,2013-08-06 01:00:00,
2013-08-05 20:05:00,70.9,64.8,29.81,North,5,0.0,0.0,81,0.00,,,1.14,18.0,meteohub,2013-08-06 01:05:00,
2013-08-05 20:10:00,70.5,64.8,29.81,North,5,0.0,0.0,82,0.00,,,1.14,16.0,meteohub,2013-08-06 01:10:00,
2013-08-05 20:16:00,70.2,65.1,29.81,North,5,0.0,0.0,84,0.00,,,1.14,14.0,meteohub,2013-08-06 01:16:00,
2013-08-05 20:21:00,69.6,64.9,29.80,North,5,0.0,0.0,85,0.00,,,1.14,12.0,meteohub,2013-08-06 01:21:00,
2013-08-05 20:26:00,69.4,64.4,29.80,North,5,0.0,0.0,84,0.00,,,1.14,11.0,meteohub,2013-08-06 01:26:00,
2013-08-05 20:32:00,69.1,64.0,29.81,North,5,0.0,0.0,84,0.00,,,1.14,7.0,meteohub,2013-08-06 01:32:00,
2013-08-05 20:37:00,68.9,63.9,29.81,North,5,0.0,0.0,84,0.00,,,1.14,5.0,meteohub,2013-08-06 01:37:00,
2013-08-05 20:42:00,68.7,64.0,29.81,North,5,0.0,0.0,85,0.00,,,1.14,0.0,meteohub,2013-08-06 01:42:00,
2013-08-05 20:47:00,68.4,63.7,29.81,North,5,0.0,0.0,85,0.00,,,1.14,0.0,meteohub,2013-08-06 01:47:00,
2013-08-05 20:52:00,68.2,63.5,29.81,North,5,0.0,0.0,85,0.00,,,1.14,0.0,meteohub,2013-08-06 01:52:00,
2013-08-05 20:57:00,68.2,63.5,29.81,North,5,0.0,0.0,85,0.00,,,1.14,0.0,meteohub,2013-08-06 01:57:00,
2013-08-05 21:02:00,67.8,63.1,29.81,North,5,0.0,0.0,85,0.00,,,1.14,0.0,meteohub,2013-08-06 02:02:00,
2013-08-05 21:07:00,67.6,63.0,29.81,North,5,0.0,0.0,85,0.00,,,1.14,0.0,meteohub,2013-08-06 02:07:00,
2013-08-05 21:12:00,67.5,63.9,29.81,North,5,0.0,0.0,88,0.00,,,1.14,0.0,meteohub,2013-08-06 02:12:00,
2013-08-05 21:17:00,67.3,63.3,29.81,North,5,0.0,0.0,87,0.00,,,1.14,0.0,meteohub,2013-08-06 02:17:00,
2013-08-05 21:22:00,66.9,63.0,29.81,North,5,0.0,0.0,87,0.00,,,1.14,0.0,meteohub,2013-08-06 02:22:00,
2013-08-05 21:27:00,66.7,62.8,29.82,North,5,0.0,0.0,87,0.00,,,1.14,0.0,meteohub,2013-08-06 02:27:00,
2013-08-05 21:32:00,66.6,63.0,29.82,North,5,0.0,0.0,88,0.00,,,1.14,0.0,meteohub,2013-08-06 02:32:00,
2013-08-05 21:38:00,66.4,63.0,29.82,North,5,0.0,0.0,89,0.00,,,1.14,0.0,meteohub,2013-08-06 02:38:00,
2013-08-05 21:43:00,66.2,62.8,29.83,North,5,0.0,0.0,89,0.00,,,1.14,0.0,meteohub,2013-08-06 02:43:00,
2013-08-05 21:49:00,66.0,63.0,29.83,North,5,0.0,0.0,90,0.00,,,1.14,0.0,meteohub,2013-08-06 02:49:00,
2013-08-05 21:54:00,65.8,62.4,29.83,North,5,0.0,0.0,89,0.00,,,1.14,0.0,meteohub,2013-08-06 02:54:00,
2013-08-05 21:59:00,65.7,62.6,29.83,North,5,0.0,0.0,90,0.00,,,1.14,0.0,meteohub,2013-08-06 02:59:00,
2013-08-05 22:04:00,65.7,63.0,29.83,North,5,0.0,0.0,91,0.00,,,1.14,0.0,meteohub,2013-08-06 03:04:00,
2013-08-05 22:09:00,65.7,62.6,29.83,North,5,0.0,0.0,90,0.00,,,1.14,0.0,meteohub,2013-08-06 03:09:00,
2013-08-05 22:14:00,65.5,62.2,29.83,North,5,0.0,0.0,89,0.00,,,1.14,0.0,meteohub,2013-08-06 03:14:00,
2013-08-05 22:19:00,65.3,62.2,29.83,North,5,0.0,0.0,90,0.00,,,1.14,0.0,meteohub,2013-08-06 03:19:00,
2013-08-05 22:24:00,64.9,62.2,29.83,North,5,0.0,0.0,91,0.00,,,1.14,0.0,meteohub,2013-08-06 03:24:00,
2013-08-05 22:29:00,64.8,62.1,29.84,North,5,0.0,0.0,91,0.00,,,1.14,0.0,meteohub,2013-08-06 03:29:00,
2013-08-05 22:35:00,64.6,62.2,29.84,North,5,0.0,0.0,92,0.00,,,1.14,0.0,meteohub,2013-08-06 03:35:00,
2013-08-05 22:40:00,64.0,61.7,29.84,North,5,0.0,0.0,92,0.00,,,1.14,0.0,meteohub,2013-08-06 03:40:00,
2013-08-05 22:45:00,64.0,62.1,29.85,North,5,0.0,0.0,93,0.00,,,1.14,0.0,meteohub,2013-08-06 03:45:00,
2013-08-05 22:50:00,64.0,62.1,29.85,North,5,0.0,0.0,93,0.00,,,1.14,0.0,meteohub,2013-08-06 03:50:00,
2013-08-05 22:55:00,64.0,62.1,29.85,North,5,0.0,0.0,93,0.00,,,1.14,0.0,meteohub,2013-08-06 03:55:00,
2013-08-05 23:00:00,63.9,61.9,29.85,North,5,0.0,0.0,93,0.00,,,1.14,0.0,meteohub,2013-08-06 04:00:00,
2013-08-05 23:01:00,63.9,61.9,29.85,North,5,0.0,0.0,93,0.00,,,1.14,0.0,meteohub,2013-08-06 04:01:00,
2013-08-05 23:06:00,63.7,61.7,29.85,North,5,0.0,0.0,93,0.00,,,1.14,0.0,meteohub,2013-08-06 04:06:00,
2013-08-05 23:11:00,63.3,61.5,29.85,North,5,0.0,0.0,94,0.00,,,1.14,0.0,meteohub,2013-08-06 04:11:00,
2013-08-05 23:16:00,63.3,61.5,29.86,North,5,0.0,0.0,94,0.00,,,1.14,0.0,meteohub,2013-08-06 04:16:00,
2013-08-05 23:21:00,63.0,61.2,29.86,North,5,0.0,0.0,94,0.00,,,1.14,0.0,meteohub,2013-08-06 04:21:00,
2013-08-05 23:26:00,63.0,61.5,29.86,North,5,0.0,0.0,95,0.00,,,1.14,0.0,meteohub,2013-08-06 04:26:00,
2013-08-05 23:31:00,62.8,61.3,29.85,North,5,0.0,0.0,95,0.00,,,1.14,0.0,meteohub,2013-08-06 04:31:00,
2013-08-05 23:36:00,62.8,61.3,29.85,North,5,0.0,0.0,95,0.00,,,1.14,0.0,meteohub,2013-08-06 04:36:00,
2013-08-05 23:42:00,62.8,61.3,29.85,North,5,0.0,0.0,95,0.00,,,1.14,0.0,meteohub,2013-08-06 04:42:00,
2013-08-05 23:46:00,62.6,61.5,29.85,North,5,0.0,0.0,96,0.00,,,1.14,0.0,meteohub,2013-08-06 04:46:00,
2013-08-05 23:52:00,62.6,61.5,29.85,North,5,0.0,0.0,96,0.00,,,1.14,0.0,meteohub,2013-08-06 04:52:00,
2013-08-05 23:57:00,62.6,61.5,29.85,North,5,0.0,0.0,96,0.00,,,1.14,0.0,meteohub,2013-08-06 04:57:00,